Weather History for Poplar Bluff, MO

Change the Weather History Date:

Saturday, July 20, 2013

  Actual Average Record
Temperature  
Mean Temperature 82 °F -  
Max Temperature 93 °F 92 °F 106 °F (1980)
Min Temperature 73 °F 69 °F 55 °F (1947)
Cooling Degree Days 17    
Growing Degree Days 32 (Base 50)    
Moisture  
Dew Point 71 °F    
Average Humidity 73    
Maximum Humidity 91    
Minimum Humidity 48    
Precipitation  
Precipitation 0.00 in - - ()
Sea Level Pressure  
Sea Level Pressure 29.89 in    
Wind  
Wind Speed 4 mph (SSW)    
Max Wind Speed 18 mph    
Max Gust Speed 30 mph    
Visibility 9 miles    
Events Thunderstorm    
Averages and records for this station are not official NWS values.
T = Trace of Precipitation, MM = Missing Value Source: NWS Daily Summary

Daily Weather History Graph

Daily Weather History Graph

Search for Another Location

Airport:

Trip Planner

Search our weather history database for the weather conditions in past years. The results will help you decide how hot, cold, wet, or windy it might be!

Date:

Astronomy

Jul. 20, 2013 Rise Set
Actual Time 5:57 AM CDT 8:17 PM CDT
Civil Twilight 5:28 AM CDT 8:46 PM CDT
Nautical Twilight 4:52 AM CDT 9:22 PM CDT
Astronomical Twilight 4:12 AM CDT 10:02 PM CDT
Moon 6:21 PM CDT (7/20) 3:37 AM CDT (7/20)
Length of Visible Light 15h 18m
Length of Day
14h 19m
Waxing Gibbous, 94% of the Moon is Illuminated
Jul 20
Waxing Gibbous
Jul 22
Full
Jul 29
Last Quarter
Aug 6
New
Aug 14
First Quarter

Hourly Weather History & Observations

Time (CDT) Temp. Heat Index Dew Point Humidity Pressure Visibility Wind Dir Wind Speed Gust Speed Precip Events Conditions
12:53 AM 77.0 °F - 72.0 °F 84% 29.92 in 10.0 mi Calm Calm - N/A   Clear
1:53 AM 75.9 °F - 71.1 °F 85% 29.92 in 9.0 mi Calm Calm - N/A   Clear
2:53 AM 77.0 °F - 71.1 °F 82% 29.91 in 8.0 mi Calm Calm - N/A   Clear
3:53 AM 75.0 °F - 71.1 °F 87% 29.91 in 7.0 mi Calm Calm - N/A   Clear
4:53 AM 73.9 °F - 71.1 °F 91% 29.91 in 7.0 mi SSW 3.5 mph - N/A   Clear
5:53 AM 73.9 °F - 70.0 °F 87% 29.92 in 6.0 mi Calm Calm - N/A   Clear
6:53 AM 75.0 °F - 71.1 °F 87% 29.92 in 7.0 mi South 4.6 mph - N/A   Clear
7:53 AM 78.1 °F - 73.0 °F 84% 29.92 in 7.0 mi SSW 6.9 mph - N/A   Clear
8:53 AM 81.0 °F 85.2 °F 72.0 °F 74% 29.92 in 10.0 mi SW 8.1 mph - N/A   Clear
9:53 AM 82.9 °F 88.0 °F 72.0 °F 69% 29.92 in 10.0 mi SSW 6.9 mph - N/A   Clear
10:53 AM 86.0 °F 91.5 °F 71.1 °F 61% 29.91 in 10.0 mi SSW 9.2 mph - N/A   Clear
11:53 AM 87.1 °F 93.6 °F 72.0 °F 61% 29.89 in 10.0 mi SSW 9.2 mph - N/A   Clear
12:53 PM 89.1 °F 95.0 °F 71.1 °F 55% 29.89 in 10.0 mi SSW 9.2 mph - N/A   Clear
1:53 PM 91.0 °F 98.2 °F 72.0 °F 53% 29.87 in 10.0 mi SW 9.2 mph - N/A   Clear
2:53 PM 91.9 °F 98.4 °F 71.1 °F 50% 29.83 in 10.0 mi SSW 9.2 mph - N/A   Clear
3:53 PM 91.9 °F 97.4 °F 70.0 °F 48% 29.80 in 10.0 mi SSW 11.5 mph 18.4 mph N/A   Clear
4:53 PM 90.0 °F 95.4 °F 70.0 °F 52% 29.82 in 10.0 mi SW 6.9 mph - N/A   Clear
5:53 PM 81.0 °F 83.3 °F 66.9 °F 62% 29.83 in 10.0 mi NW 18.4 mph 29.9 mph N/A Thunderstorm Thunderstorm
6:53 PM 78.1 °F - 69.1 °F 74% 29.89 in 10.0 mi SE 6.9 mph - N/A Thunderstorm Scattered Clouds
7:22 PM 77.0 °F - 69.8 °F 78% 29.90 in 10.0 mi South 5.8 mph - N/A   Partly Cloudy
7:53 PM 77.0 °F - 69.1 °F 76% 29.88 in 10.0 mi WSW 4.6 mph - 0.00 in   Scattered Clouds
8:53 PM 77.0 °F - 70.0 °F 79% 29.88 in 10.0 mi Calm Calm - 0.00 in   Partly Cloudy
9:53 PM 75.9 °F - 70.0 °F 82% 29.91 in 10.0 mi NNE 4.6 mph - N/A   Clear
10:53 PM 75.9 °F - 70.0 °F 82% 29.91 in 10.0 mi Calm Calm - N/A   Clear
11:53 PM 73.9 °F - 69.1 °F 85% 29.92 in 10.0 mi Calm Calm - N/A   Clear